Tracking 17844 objects as of 25-August-2016
HD Live streaming from Space Station
objects crossing your sky now

NAVSTAR 36 (USA 100)

Track NAVSTAR 36 (USA 100) now!
NAVSTAR 36 (USA 100) is classified as:


NORAD ID: 23027
Int'l Code: 1994-016A
Perigee: 19,943.2 km
Apogee: 20,535.3 km
Inclination: 54.7 °
Period: 720.0 minutes
Semi major axis: 26610 km
RCS: 2.0263 m2 (large)
Launch date: March 10, 1994
Source: United States (US)
Launch site: AIR FORCE EASTERN TEST RANGE (AFETR)
PRN:
Your satellite tracking list
Your tracking list is empty





NASA's NSSDC Master Catalog

Two Line Element Set (TLE):
1 23027U 94016A   16237.45297569 -.00000037  00000-0  00000+0 0  9990
2 23027  54.6510  47.2879 0111251  15.6906  41.1323  2.00565384164561
Source of the keplerian elements: AFSPC

N2YO: 586